West Porterville
DateTemperatureDew Point
05/04 - 06:30 PM63.0°51.1°
05/04 - 06:15 PM63.6°50.2°
05/04 - 06:00 PM63.8°50.6°
05/04 - 05:45 PM64.1°50.5°
05/04 - 05:30 PM63.7°50.8°
05/04 - 05:15 PM63.6°51.1°
05/04 - 05:00 PM63.7°49.8°
05/04 - 04:45 PM63.8°50.2°
05/04 - 04:30 PM63.4°51.0°
05/04 - 04:15 PM63.1°50.9°
05/04 - 04:00 PM62.7°51.6°
05/04 - 03:45 PM61.9°51.7°
05/04 - 03:30 PM61.8°51.7°
05/04 - 03:15 PM61.8°51.6°
05/04 - 03:00 PM61.6°51.9°
05/04 - 02:45 PM61.4°50.7°
05/04 - 02:30 PM61.3°51.5°
05/04 - 02:15 PM61.2°51.4°
05/04 - 02:00 PM60.7°51.8°
05/04 - 01:45 PM60.5°51.8°
05/04 - 01:30 PM60.2°51.7°
05/04 - 01:15 PM60.2°51.6°
05/04 - 01:00 PM60.3°51.4°
05/04 - 12:45 PM60.4°51.2°
05/04 - 12:30 PM60.4°51.4°
05/04 - 12:15 PM59.9°51.0°
05/04 - 12:00 PM59.1°50.7°
05/04 - 11:45 AM58.6°50.8°
05/04 - 11:30 AM58.4°50.8°
05/04 - 11:15 AM58.3°50.7°
05/04 - 11:00 AM58.4°50.5°
05/04 - 10:45 AM58.4°51.1°
05/04 - 10:30 AM58.2°50.5°
05/04 - 10:15 AM57.9°50.5°
05/04 - 10:00 AM57.7°51.1°
05/04 - 09:45 AM57.4°51.1°
05/04 - 09:30 AM57.1°51.2°
05/04 - 09:15 AM56.6°52.0°
05/04 - 09:00 AM56.1°51.5°
05/04 - 08:45 AM55.9°50.9°
05/04 - 08:30 AM55.6°51.6°
05/04 - 08:15 AM55.1°51.4°
05/04 - 08:00 AM54.9°51.3°
05/04 - 07:45 AM55.5°51.3°
05/04 - 07:30 AM56.1°50.4°
05/04 - 07:15 AM56.5°50.5°
05/04 - 07:00 AM56.6°50.5°
05/04 - 06:45 AM56.5°49.9°
05/04 - 06:30 AM56.4°49.9°
05/04 - 06:15 AM56.3°49.7°
05/04 - 06:00 AM56.2°49.4°
05/04 - 05:45 AM56.1°49.2°
05/04 - 05:30 AM56.3°50.0°
05/04 - 05:15 AM56.4°49.6°
05/04 - 05:00 AM56.4°48.6°
05/04 - 04:45 AM56.7°48.1°
05/04 - 04:30 AM56.9°47.3°
05/04 - 04:15 AM57.0°47.0°
05/04 - 04:00 AM57.1°47.1°
05/04 - 03:45 AM57.2°47.0°
05/04 - 03:30 AM57.2°47.0°
05/04 - 03:15 AM57.3°47.1°
05/04 - 03:00 AM57.3°47.1°
05/04 - 02:45 AM57.4°46.7°
05/04 - 02:30 AM57.5°46.8°
05/04 - 02:15 AM57.6°46.8°
05/04 - 02:00 AM57.8°46.8°
05/04 - 01:45 AM57.9°46.4°
05/04 - 01:30 AM57.9°46.4°
05/04 - 01:15 AM58.3°46.3°
05/04 - 01:00 AM58.4°46.2°
05/04 - 12:45 AM58.5°46.0°
05/04 - 12:30 AM58.7°45.9°
05/04 - 12:15 AM59.1°46.0°
05/04 - 12:00 AM59.4°46.0°
05/03 - 11:45 PM59.8°46.2°
05/03 - 11:30 PM60.1°46.0°
05/03 - 11:15 PM60.4°46.0°
05/03 - 11:00 PM60.7°46.0°
05/03 - 10:45 PM61.0°46.0°
05/03 - 10:30 PM61.1°45.2°
05/03 - 10:15 PM61.2°45.2°
05/03 - 10:00 PM61.2°44.7°
05/03 - 09:45 PM61.4°45.0°
05/03 - 09:30 PM61.7°45.5°
05/03 - 09:15 PM62.0°45.2°
05/03 - 09:00 PM62.2°45.2°
05/03 - 08:45 PM62.6°45.6°
05/03 - 08:30 PM63.2°45.9°
05/03 - 08:15 PM63.9°45.7°
05/03 - 08:00 PM64.9°45.8°
05/03 - 07:45 PM66.0°45.5°
05/03 - 07:30 PM67.1°45.7°
05/03 - 07:15 PM68.5°46.5°
05/03 - 07:00 PM69.9°47.4°
05/03 - 06:45 PM71.2°49.5°
05/03 - 06:30 PM72.1°51.5°
05/03 - 06:15 PM72.7°53.6°
05/03 - 06:00 PM73.0°54.6°
05/03 - 05:45 PM73.1°54.7°
05/03 - 05:30 PM72.9°54.9°
05/03 - 05:15 PM73.0°54.2°
05/03 - 05:00 PM73.8°54.9°
05/03 - 04:45 PM73.6°54.3°
05/03 - 04:30 PM73.1°55.5°
05/03 - 04:15 PM73.3°55.0°
05/03 - 04:00 PM72.9°55.4°
05/03 - 03:45 PM73.8°55.8°
05/03 - 03:30 PM74.1°55.3°
05/03 - 03:15 PM73.8°54.5°
05/03 - 03:00 PM74.3°55.5°
05/03 - 02:45 PM74.8°55.5°
05/03 - 02:30 PM74.3°55.2°
05/03 - 02:15 PM76.0°56.3°
05/03 - 02:00 PM75.4°56.3°
05/03 - 01:45 PM74.5°56.4°
05/03 - 01:30 PM74.0°56.3°
05/03 - 01:15 PM73.2°56.8°
05/03 - 01:00 PM73.0°56.9°
05/03 - 12:45 PM71.2°57.2°
05/03 - 12:30 PM69.6°56.9°
05/03 - 12:15 PM68.9°56.6°
05/03 - 12:00 PM68.2°56.9°
05/03 - 11:45 AM67.4°56.9°
05/03 - 11:30 AM67.1°56.7°
05/03 - 11:15 AM66.9°56.8°
05/03 - 11:00 AM66.7°56.9°
05/03 - 10:45 AM65.9°56.2°
05/03 - 10:30 AM65.4°56.0°
05/03 - 10:15 AM65.5°56.0°
05/03 - 10:00 AM64.0°55.6°
05/03 - 09:45 AM63.4°55.6°
05/03 - 09:30 AM62.9°55.8°
05/03 - 09:15 AM62.2°55.5°
05/03 - 09:00 AM61.1°54.9°
05/03 - 08:45 AM60.2°54.8°
05/03 - 08:30 AM59.4°54.5°
05/03 - 08:15 AM58.3°54.2°
05/03 - 08:00 AM57.4°54.0°
05/03 - 07:45 AM56.4°53.6°
05/03 - 07:30 AM55.3°53.3°
05/03 - 07:15 AM54.3°53.1°
05/03 - 07:00 AM53.7°52.3°
05/03 - 06:45 AM53.7°52.5°
05/03 - 06:30 AM53.7°52.6°
05/03 - 06:15 AM53.8°52.7°
05/03 - 06:00 AM53.8°52.6°
05/03 - 05:45 AM54.3°53.0°
05/03 - 05:30 AM54.5°53.4°
05/03 - 05:15 AM54.6°53.5°
05/03 - 05:00 AM54.7°53.3°
05/03 - 04:45 AM54.9°53.3°
05/03 - 04:30 AM55.3°53.7°
05/03 - 04:15 AM55.7°54.2°
05/03 - 04:00 AM56.2°54.9°
05/03 - 03:45 AM56.6°55.3°
05/03 - 03:30 AM57.1°56.0°
05/03 - 03:15 AM57.4°56.5°
05/03 - 03:00 AM57.5°56.7°
05/03 - 02:45 AM57.4°56.5°
05/03 - 02:30 AM56.8°55.7°
05/03 - 02:15 AM56.6°55.2°
05/03 - 02:00 AM56.5°54.8°
05/03 - 01:45 AM56.6°54.8°
05/03 - 01:30 AM56.7°54.8°
05/03 - 01:15 AM57.1°54.7°
05/03 - 01:00 AM57.7°55.1°
05/03 - 12:45 AM58.0°55.4°
05/03 - 12:30 AM58.3°55.4°
05/03 - 12:15 AM58.7°55.7°
05/03 - 12:00 AM59.2°55.8°
05/02 - 11:45 PM59.8°56.3°
05/02 - 11:30 PM60.2°56.6°
05/02 - 11:15 PM60.4°56.5°
05/02 - 11:00 PM60.9°56.5°
05/02 - 10:45 PM61.7°56.3°
05/02 - 10:30 PM62.3°56.3°
05/02 - 10:15 PM63.1°56.4°
05/02 - 10:00 PM63.6°56.3°
05/02 - 09:45 PM64.4°55.5°
05/02 - 09:30 PM65.3°55.3°
05/02 - 09:15 PM66.7°54.7°
05/02 - 09:00 PM68.0°54.6°
05/02 - 08:45 PM69.1°54.3°
05/02 - 08:30 PM69.6°55.2°
05/02 - 08:15 PM70.0°54.2°
05/02 - 08:00 PM71.5°55.6°
05/02 - 07:45 PM73.4°55.6°
05/02 - 07:30 PM74.9°54.6°
05/02 - 07:15 PM76.7°54.7°